Weather History for Challis, ID

Change the Weather History Date:

Thursday, September 5, 2013

  Actual Average Record
Temperature  
Mean Temperature 69 °F 60 °F  
Max Temperature 82 °F 78 °F 93 °F (1928)
Min Temperature 56 °F 42 °F 30 °F (1921)
Degree Days  
Heating Degree Days 0 6  
Month to date heating degree days 0 26  
Since 1 July heating degree days 6 99  
Cooling Degree Days 4 0  
Month to date cooling degree days 16 4  
Year to date cooling degree days 406 246  
Growing Degree Days 19 (Base 50)    
Moisture  
Dew Point 52 °F    
Average Humidity 58    
Maximum Humidity 80    
Minimum Humidity 36    
Precipitation  
Precipitation 0.02 in 0.03 in 0.49 in (1930)
Month to date precipitation 0.24 0.13  
Year to date precipitation 2.75 7.52  
Sea Level Pressure  
Sea Level Pressure 29.96 in    
Wind  
Wind Speed 6 mph (South)    
Max Wind Speed 30 mph    
Max Gust Speed 40 mph    
Visibility 10 miles    
Events Rain , Thunderstorm    
T = Trace of Precipitation, MM = Missing Value Source: NWS Daily Summary

Daily Weather History Graph

Daily Weather History Graph

Search for Another Location

Airport:

Trip Planner

Search our weather history database for the weather conditions in past years. The results will help you decide how hot, cold, wet, or windy it might be!

Date:

Astronomy

Sep. 05, 2013 Rise Set
Actual Time 7:04 AM MDT 8:05 PM MDT
Civil Twilight 6:34 AM MDT 8:35 PM MDT
Nautical Twilight 5:59 AM MDT 9:10 PM MDT
Astronomical Twilight 5:21 AM MDT 9:47 PM MDT
Moon 7:22 AM MDT (9/5) 7:55 PM MDT (9/5)
Length of Visible Light 14h 00m
Length of Day
13h 00m
New Moon, 0% of the Moon is Illuminated
Sep 5
New Moon
Sep 12
First Quarter
Sep 19
Full
Sep 26
Last Quarter
Oct 4
New

Hourly Weather History & Observations

Time (MDT) Temp. Dew Point Humidity Pressure Visibility Wind Dir Wind Speed Gust Speed Precip Events Conditions
12:55 AM 64.9 °F 53.1 °F 65% 29.99 in 10.0 mi South 3.5 mph - N/A   Clear
1:55 AM 64.9 °F 52.0 °F 63% 29.97 in 10.0 mi SSW 3.5 mph - N/A   Clear
2:55 AM 61.0 °F 52.0 °F 72% 29.95 in 10.0 mi Calm Calm - N/A   Clear
3:55 AM 57.9 °F 52.0 °F 81% 29.95 in 10.0 mi SW 4.6 mph - N/A   Clear
4:55 AM 59.0 °F 51.1 °F 75% 29.96 in 10.0 mi Calm Calm - N/A   Clear
5:55 AM 59.0 °F 51.1 °F 75% 29.96 in 10.0 mi Calm Calm - N/A   Partly Cloudy
6:55 AM 57.0 °F 51.1 °F 81% 29.98 in 10.0 mi Calm Calm - N/A   Overcast
7:55 AM 59.0 °F 50.0 °F 72% 30.00 in 10.0 mi Calm Calm - N/A   Clear
8:55 AM 64.0 °F 50.0 °F 60% 29.99 in 10.0 mi SSW 3.5 mph - N/A   Overcast
9:55 AM 62.1 °F 53.1 °F 72% 30.03 in 10.0 mi Calm Calm - 0.00 in   Overcast
10:55 AM 63.0 °F 54.0 °F 72% 30.05 in 10.0 mi South 3.5 mph - 0.01 in Rain Light Rain
11:55 AM 68.0 °F 53.1 °F 59% 30.03 in 10.0 mi NNE 5.8 mph - 0.00 in   Partly Cloudy
12:55 PM 73.0 °F 52.0 °F 48% 29.99 in 10.0 mi NW 4.6 mph - N/A   Clear
1:55 PM 77.0 °F 52.0 °F 42% 29.95 in 10.0 mi NE 10.4 mph - N/A   Clear
2:55 PM 80.1 °F 51.1 °F 36% 29.91 in 10.0 mi ESE 3.5 mph - N/A   Partly Cloudy
3:55 PM 81.0 °F 51.1 °F 35% 29.85 in 10.0 mi East 4.6 mph - N/A   Partly Cloudy
4:53 PM 77.0 °F 51.8 °F 41% 30.06 in 10.0 mi SSE 26.5 mph 35.7 mph 0.00 in Rain , Thunderstorm Light Thunderstorms and Rain
4:55 PM 75.0 °F 52.0 °F 44% 29.89 in 10.0 mi SSE 25.3 mph 38.0 mph 0.00 in Rain , Thunderstorm Light Thunderstorms and Rain
5:15 PM 69.8 °F 55.4 °F 60% 30.09 in 8.0 mi SSW 17.3 mph 28.8 mph 0.01 in Rain Light Rain
5:55 PM 75.0 °F 52.0 °F 44% 29.90 in 10.0 mi South 9.2 mph - 0.01 in   Clear
6:55 PM 73.9 °F 51.1 °F 45% 29.88 in 10.0 mi South 11.5 mph - N/A   Mostly Cloudy
7:55 PM 72.0 °F 51.1 °F 48% 29.90 in 10.0 mi SSE 11.5 mph 20.7 mph N/A   Scattered Clouds
8:55 PM 69.1 °F 50.0 °F 51% 29.93 in 10.0 mi South 10.4 mph - N/A   Clear
9:55 PM 68.0 °F 50.0 °F 52% 29.93 in 10.0 mi South 5.8 mph - N/A   Clear
10:55 PM 64.0 °F 52.0 °F 65% 29.94 in 10.0 mi NNW 5.8 mph - N/A   Scattered Clouds
11:55 PM 64.0 °F 51.1 °F 63% 29.93 in 10.0 mi NNW 9.2 mph 17.3 mph N/A   Clear